Regional Weather Roundup
Issued by NWS

Current Version | Previous Version | Text Only | Print | Product List | Glossary On
Versions: 1 2 3 4 5 6 7 8 9 10 11 12 13 14 15 16 17 18 19 20 21 22 23 24 25 26 27 28 29 30 31 32 33 34 35 36 37 38 39 40 41 42 43 44 45 46 47 48 49 50
000
ASUS44 KFWD 241215
RWRTX
NORTH TEXAS HOURLY WEATHER ROUNDUP
NATIONAL WEATHER SERVICE FORT WORTH TX
600 AM CST MON NOV 24 2014

NOTE: "FAIR" INDICATES FEW OR NO CLOUDS BELOW 12,000 FEET WITH NO
SIGNIFICANT WEATHER AND/OR OBSTRUCTIONS TO VISIBILITY.

TXZ118-119-241300-
DALLAS/FORT WORTH METROPLEX

CITY           SKY/WX    TMP DP  RH WIND       PRES   REMARKS
DFW AIRPORT    CLEAR     44  34  67 W13       29.95R WCI  38
6HR MIN TEMP:  44; 6HR MAX TEMP:  48;

DALLAS LOVE    CLEAR     45  36  70 NW7       29.96R
6HR MIN TEMP:  43; 6HR MAX TEMP:  50;

FTW MEACHAM    CLEAR     44  35  70 W7        29.96R
6HR MIN TEMP:  44; 6HR MAX TEMP:  49;

DAL-EXECUTIVE  CLEAR     46  35  65 W12       29.95R
6HR MIN TEMP:  46; 6HR MAX TEMP:  50;

FTW-ALLIANCE   CLEAR     42  34  73 W8        29.96R WCI  37
6HR MIN TEMP:  42; 6HR MAX TEMP:  46;

FTW-SPINKS     CLEAR     43  35  74 W9        29.98R WCI  38
6HR MIN TEMP:  43; 6HR MAX TEMP:  49;

ARLINGTON      CLEAR     45  34  65 W8        29.96R
6HR MIN TEMP:  45; 6HR MAX TEMP:  51;

LANCASTER      CLEAR     45  33  62 NW12      29.96R WCI  40
6HR MIN TEMP:  45; 6HR MAX TEMP:  49;

$$

TXZ091>094-102>105-117-120-121-131>134-241300-
NORTH CENTRAL TEXAS

CITY           SKY/WX    TMP DP  RH WIND       PRES   REMARKS
SHRMAN/DENISON CLEAR     38  36  90 W6        29.95R WCI  34
6HR MIN TEMP:  38; 6HR MAX TEMP:  47;

GAINESVILLE    CLEAR     39  32  75 W5        29.97R WCI  36
6HR MIN TEMP:  38; 6HR MAX TEMP:  46;

BOWIE          CLEAR     38  31  75 W10       29.96R WCI  32
6HR MIN TEMP:  38; 6HR MAX TEMP:  46;

BRIDGEPORT     CLEAR     41  33  73 W6        29.99R WCI  37
6HR MIN TEMP:  40; 6HR MAX TEMP:  44;

DECATUR        CLEAR     38  33  81 W6        29.96R WCI  34
6HR MIN TEMP:  38; 6HR MAX TEMP:  45;

DENTON         CLEAR     38  34  85 W6        29.96R WCI  33
6HR MIN TEMP:  37; 6HR MAX TEMP:  45;

MCKINNEY       CLEAR     43  35  73 W9        29.95R WCI  38
6HR MIN TEMP:  43; 6HR MAX TEMP:  48;

GREENVILLE     CLEAR     43  36  75 W7        29.93R WCI  39
ROCKWALL       CLEAR     42  37  79 NW7       29.93R WCI  38
6HR MIN TEMP:  42; 6HR MAX TEMP:  49;

TERRELL        CLEAR     45  36  70 NW8       29.94R
6HR MIN TEMP:  44; 6HR MAX TEMP:  52;

WAXAHACHIE     CLEAR     42  37  80 NW14      29.95S WCI  35
6HR MIN TEMP:  42; 6HR MAX TEMP:  49;

CLEBURNE       CLEAR     43  37  81 NW14G21   29.96S WCI  36
GRANBURY       CLEAR     43  36  75 W6        30.00R WCI  39
6HR MIN TEMP:  42; 6HR MAX TEMP:  49;

$$

TXZ083>090-098>101-113>116-127>130-139>142-154-155-241300-
WESTERN NORTH TEXAS

CITY           SKY/WX    TMP DP  RH WIND       PRES   REMARKS
WICHITA FALLS  CLEAR     38  27  64 W10       29.98R WCI  31
6HR MIN TEMP:  38; 6HR MAX TEMP:  46;

WF-KICKAPOO    CLEAR     39  26  59 W5        30.00R WCI  36
6HR MIN TEMP:  39; 6HR MAX TEMP:  49;

VERNON         CLEAR     36  27  69 W9        29.99S WCI  29
ABILENE        CLEAR     39  30  70 CALM      30.03R
6HR MIN TEMP:  37; 6HR MAX TEMP:  43;

ABILENE-DYESS  CLEAR     38  30  71 W8        30.01R WCI  32
6HR MIN TEMP:  38; 6HR MAX TEMP:  43;

BRECKENRIDGE   CLEAR     40  32  72 W6        30.01R WCI  36
6HR MIN TEMP:  40; 6HR MAX TEMP:  46;

GRAHAM         CLEAR     38  32  78 NW5       29.98R WCI  35
6HR MIN TEMP:  38; 6HR MAX TEMP:  43;

MINERAL WELLS  CLEAR    N/A N/A N/A W6        29.98R
STEPHENVILLE   CLEAR     41  34  75 NW6       30.01R WCI  37
6HR MIN TEMP:  41; 6HR MAX TEMP:  47;

COMANCHE       CLEAR     43  35  73 NW13G18   29.99R WCI  36
6HR MIN TEMP:  42; 6HR MAX TEMP:  47;

BROWNWOOD      CLEAR     41  34  75 NW7       30.01R WCI  36
COLEMAN        CLEAR     39  35  84 NW10      30.01S WCI  32
6HR MIN TEMP:  39; 6HR MAX TEMP:  46; 6HR PCP:  0.01;

BRADY          CLEAR     39  34  81 NW5       30.00R WCI  36
$$

TXZ143>147-156>162-174-175-241300-
CENTRAL TEXAS

CITY           SKY/WX    TMP DP  RH WIND       PRES   REMARKS
WACO           CLEAR     38  36  92 SW7       29.98R WCI  33
6HR MIN TEMP:  38; 6HR MAX TEMP:  51;

WACO-MCGREGOR  CLEAR     43  32  65 W7        29.99R WCI  39
6HR MIN TEMP:  41; 6HR MAX TEMP:  50;

HILLSBORO      CLEAR     41  35  79 W3        29.96R
6HR MIN TEMP:  40; 6HR MAX TEMP:  48;

CORSICANA      CLEAR     41  35  79 W6        29.96R WCI  37
6HR MIN TEMP:  41; 6HR MAX TEMP:  52;

MEXIA          CLEAR     42  37  79 NW7       29.94S WCI  38
6HR MIN TEMP:  42; 6HR MAX TEMP:  51;

HEARNE         CLEAR     44  39  84 NW5       29.97R
6HR MIN TEMP:  44; 6HR MAX TEMP:  54;

CAMERON        CLEAR     43  38  80 NW6       29.97R WCI  40
6HR MIN TEMP:  43; 6HR MAX TEMP:  54;

TEMPLE         CLEAR     45  34  65 NW12      29.96R WCI  39
6HR MIN TEMP:  45; 6HR MAX TEMP:  52;

KILLEEN        CLEAR     45  35  68 NW9       29.98R
6HR MIN TEMP:  45; 6HR MAX TEMP:  50;

KILLEEN-SKYLRK CLEAR     45  30  57 NW6       29.95R
6HR MIN TEMP:  45; 6HR MAX TEMP:  52;

FORT HOOD      CLEAR     47  36  65 W10       29.97R
6HR MIN TEMP:  47; 6HR MAX TEMP:  54;

GATESVILLE     CLEAR     45  36  70 NW3       30.01R
HAMILTON       CLEAR     42  35  75 NW8       29.99R WCI  37
6HR MIN TEMP:  42; 6HR MAX TEMP:  46;

LAMPASAS       CLEAR     43  37  79 NW8       29.97S WCI  39
6HR MIN TEMP:  42; 6HR MAX TEMP:  50;

$$

TXZ095>097-106>112-122>126-135>138-148>153-164>167-241300-
EAST TEXAS

CITY           SKY/WX    TMP DP  RH WIND       PRES   REMARKS
PARIS          CLEAR     37  34  87 W7        29.91R WCI  32
6HR MIN TEMP:  37; 6HR MAX TEMP:  50;

SULPHUR SPRNGS CLEAR     45  37  72 W9        29.94R WCI  40
6HR MIN TEMP:  45; 6HR MAX TEMP:  52;

MOUNT PLEASANT CLEAR     44  36  73 W5        29.92R
6HR MIN TEMP:  44; 6HR MAX TEMP:  53;

MINEOLA        CLEAR     45  36  70 CALM      29.93R
TYLER          CLEAR     45  36  70 CALM      29.92R
6HR MIN TEMP:  44; 6HR MAX TEMP:  52;

LONGVIEW       CLEAR     46  36  68 W5        29.91R
6HR MIN TEMP:  45; 6HR MAX TEMP:  55;

MARSHALL       CLEAR     48  40  74 W3        29.92R
6HR MIN TEMP:  48; 6HR MAX TEMP:  56;

ATHENS         CLEAR     37  36  93 CALM      29.94R
PALESTINE      CLEAR     42  38  86 CALM      29.96R
JACKSONVILLE   CLEAR     47  37  70 NW7       29.93R
HENDERSON      CLEAR     46  37  71 CALM      29.92R
6HR MIN TEMP:  45; 6HR MAX TEMP:  55;

NACOGDOCHES    CLEAR     45  37  76 NW5       29.92R
6HR MIN TEMP:  45; 6HR MAX TEMP:  57;

LUFKIN         CLEAR     49  40  71 NW6       29.92R
6HR MIN TEMP:  49; 6HR MAX TEMP:  61;

$$

SUPPLEMENTAL OBSERVATIONS (CENTRAL)

CITY           SKY/WX    TMP DP  RH WIND       PRES   REMARKS
LAKE TEXOMA      N/A     46  36  66 W13         N/A
CADDO GRASSLND   N/A     43  34  70 W3          N/A
PAT MAYSE LAKE   N/A     43  36  75 W8          N/A  WCI  38
ATHENS           N/A     41  36  81 CALM        N/A
PALESTINE        N/A     43  37  81 NW2         N/A
LAKE LIMESTONE   N/A     45  37  76 W3          N/A
MCGREGOR         N/A     45  36  70 NW5         N/A
TEMPLE           N/A     45  36  70 NW2         N/A
$$

SUPPLEMENTAL OBSERVATIONS (WEST)

CITY           SKY/WX    TMP DP  RH WIND       PRES   REMARKS
MILLERS CREEK    N/A     34  27  75 SW3         N/A
POSSUM KINGDOM   N/A     39  30  70 W8          N/A  WCI  34
GRANBURY         N/A     43  34  70 W7          N/A  WCI  39
COMANCHE         N/A     43  32  65 NW16        N/A  WCI  35
HAMBY            N/A     36  32  87 NW2         N/A
$$

SUPPLEMENTAL OBSERVATIONS (EAST)

CITY           SKY/WX    TMP DP  RH WIND       PRES   REMARKS



USA.gov is the U.S. government's official web portal to all federal, state and local government web resources and services.